Regional Weather Roundup
Issued by NWS

Home | Current Version | Previous Version | Text Only | Print | Product List | Glossary On
Versions: 1 2 3 4 5 6 7 8 9 10 11 12 13 14 15 16 17 18 19 20 21 22 23 24 25 26 27 28 29 30 31 32 33 34 35 36 37 38 39 40 41 42 43 44 45 46 47 48 49 50
000
ASHW40 PHFO 240643
RWRHI

WEATHER ROUNDUP FOR HAWAII
NATIONAL WEATHER SERVICE HONOLULU HI
800 PM HST WED AUG 23 2017

THIS IS AN AUTOMATED REPORT THAT HAS NOT BEEN QUALITY CONTROLLED.

NOTE..."FAIR" INDICATES FEW OR NO CLOUDS BELOW 12,000 FEET WITH NO
SIGNIFICANT WEATHER AND/OR OBSTRUCTIONS TO VISIBILITY.

* - THESE SITES REPORT LIMITED FIELDS
# - BUOY DATA PROVIDED BY PACIFIC ISLANDS OCEAN OBSERVING SYSTEM.

HIZ001>004-240700-
KAUAI-NIIHAU-

CITY           SKY/WX    TMP DP  RH WIND       PRES   REMARKS
LIHUE APT      PTCLDY    81  71  71 E20       30.06R
PORT ALLEN*      N/A     81 N/A N/A E16G25      N/A
POIPU*           N/A     79 N/A N/A NE10G20     N/A
PRINCEVILLE*     N/A     77 N/A N/A SE7G14      N/A
KOKOLE POINT*  NOT AVBL
MOLOAA DAIRY*    N/A     79  70  73 E6G14       N/A
WAIMEA HTS*      N/A     79  68  69 E12G18      N/A
PUU OPAE*        N/A     72  61  68 E6G12       N/A
PUU LUA*       NOT AVBL
MAKAHA RIDGE*    N/A     73  63  68 CALM        N/A
$$

HIZ005>011-240700-
OAHU-

CITY           SKY/WX    TMP DP  RH WIND       PRES   REMARKS
HONOLULU       PTCLDY    76  66  71 NE14G20   30.02R
KALAELOA       CLEAR     80  65  59 NE8       30.03R
KANEOHE MCB    MOCLDY    81  71  71 E15G22    30.02
WHEELER FIELD  FAIR      77  66  69 E6        30.04R
BELLOWS*         N/A    N/A N/A N/A NE21        N/A
KAHUKU*          N/A    N/A N/A N/A NE10G20     N/A
WHEELER*         N/A    N/A N/A N/A E2          N/A
WAIANAE HARBOR   N/A    N/A N/A N/A NE8G17      N/A
DILLINGHAM*      N/A     79  66  65 W2G14       N/A
KAHUKU TRN*      N/A     75  68  78 W12G26      N/A
KAWAILOA*        N/A     73  66  78 E13G25      N/A
KII*             N/A     81  73  78 E18G28      N/A
MAKUA RANGE*     N/A     79  63  57 W7G17       N/A
OAHU FOREST NW   N/A     72  66  83 E18G39      N/A
SCHOFIELD BRK*   N/A     70  59  68 MISG        N/A
SCHOFIELD S*   NOT AVBL
WAIANAE VLY*     N/A    N/A N/A N/A MISG        N/A
KUAOKALA*        N/A     75 N/A N/A NE18        N/A
HONOULIUULI*   NOT AVBL
MOKUOLOE IS*   NOT AVBL
PALEHUA*         N/A     70  64  83 NE13G26     N/A
WAIAWA PHB*    NOT AVBL
$$

HIZ012>013-240700-
MOLOKAI-

CITY           SKY/WX    TMP DP  RH WIND       PRES   REMARKS
MOLOKAI AIRPT  CLEAR     78  68  71 NE14G26   30.04R
KALAUPAPA      NOT AVBL
MAKAPULAPAI*     N/A     79  68  69 E20G30      N/A
MOLOKAI 1*     NOT AVBL
PUU ALII*        N/A     61  59  94 N3G18       N/A
$$

HIZ016-240700-
KAHOOLAWE-

CITY           SKY/WX    TMP DP  RH WIND       PRES   REMARKS
KAHOOLAWE*     NOT AVBL
HAKIOAWA*        N/A     73  67  81 MISG      30.45R
HONOKANAIA*      N/A     79  65  61 NE15G31   29.94R
KANELOA*         N/A     77  68  73 E20G35    30.06F
KEALIALALO*    NOT AVBL
LUA MAKIKA*    NOT AVBL
$$

HIZ014>015-240700-
LANAI-

CITY           SKY/WX    TMP DP  RH WIND       PRES   REMARKS
LANAI CITY     FAIR      72  64  76 NE8       30.08R
LANAI 1*       NOT AVBL
$$

HIZ017>028-240700-
MAUI-

CITY           SKY/WX    TMP DP  RH WIND       PRES   REMARKS
KAHULUI        PTCLDY    79  67  66 NE17G25   30.02R
KAPALUA-W MAUI NOT AVBL
HANA AIRPORT   CLOUDY    77  68  73 E5        30.10R
HANA*          NOT AVBL
HALEAKALA SUMM NOT AVBL
MAALAEA BAY*     N/A     79 N/A N/A VRB21G36    N/A
HALEAKALA*     NOT AVBL
KAUPO GAP*     NOT AVBL
KULA 1*          N/A     53  40  61 E3          N/A
$$

HIZ023>026-240700-
BIG ISLAND OF HAWAII COAST AND LOWER SLOPES-

CITY           SKY/WX    TMP DP  RH WIND       PRES   REMARKS
KAILUA KONA    MOCLDY    82  62  50 NE13      29.96R
HILO           LGT RAIN  73  70  88 NW6       30.06R
HONOKAA*         N/A     70 N/A N/A VRB1        N/A
KAWAIHAE MWT*    N/A     84 N/A N/A SE5G12      N/A
KAWAIHAE*        N/A     84 N/A N/A SE3       29.97R
SOUTH POINT*     N/A     75 N/A N/A N16G28      N/A
UPOLU AIRPORT* NOT AVBL
KAMUELA*         N/A     64  59  82 NE22      30.12S
HAKALAU*         N/A     48  46  93 W3          N/A
KALOKO-HONOKO*   N/A     82  70  65 E7        29.95R
PALI 2*          N/A     66  59  77 S18G29      N/A
KEALAKOMO*       N/A     79  66  65 N15G23      N/A
KAUPULEHU*       N/A     73  59  60 SW5         N/A
KAPAPALA*        N/A     69  67  94 W3          N/A
LOWER KAHUKU*    N/A    N/A N/A N/A N1G7        N/A
PUHE CS*         N/A     82  55  39 E10G24      N/A
PUHO CS*         N/A     80  70  71 N1          N/A
PTA KEAMUKU*     N/A     63  55  77 E12G23      N/A
WAIKOLOA*        N/A     73  59  60 E18G33      N/A
$$

HIZ027>028-240700-
BIG ISLAND OF HAWAII INTERIOR AND SUMMMITS-

CITY           SKY/WX    TMP DP  RH WIND       PRES   REMARKS
BRADSHAW FIELD CLEAR     54  49  84 SE9       30.35R
MK VISITOR CEN   N/A     57  10  15 NE5         N/A
MAUNA KEA*       N/A     37   1  22 NE28        N/A  WCI  25
MAUNA LOA*       N/A     50   5  16 MISG        N/A
MAUNA LOA 1*   NOT AVBL
PTA KIPUKA*      N/A     75  72  88 NW2         N/A
PTA RANGE 17*    N/A     73  66  78 NW13G18     N/A
PTA WEST*        N/A     64  59  82 SE5         N/A
NENE CABIN*      N/A     50  46  87 N5          N/A
AHUMOA*          N/A     56  50  80 E3          N/A
PTA PORTABLE*  NOT AVBL
PUU MALI*        N/A    N/A N/A N/A E8G14       N/A
$$

HIC003-240700-
NORTHWEST ISLANDS-

CITY           SKY/WX    TMP DP  RH WIND       PRES   REMARKS
MIDWAY ISLAND  PTCLDY    81  73  78 E9        30.09R
MIDWAY NOS*      N/A     81 N/A N/A MISG      30.08R
FRENCH FRIGATE NOT AVBL
$$

PHZ110>124-180-240700-
BUOY REPORTS

STATION/POSITION TIME  TEMP    WIND        PRES    WAVE   SWELL
                       AIR SEA DIR/SP/G            HT/PER HT/DIR
                 (UTC) (F)     (DEG/KT/KT) (MB)    (FT/S) (FT/D)
BUOY 51001       0620   81 81   80/ 16/ 19 1019.1
BUOY 51101       0550   81 82   80/ 16/ 19 1018.9R   7/ 8   5/100
BUOY 51100       NOT AVBL
BUOY 51002       0620   81 81   70/ 19/ 23 1014.5
BUOY 51003       0550   81 82   60/ 16/ 17 1015.0R   6/ 7   3/ 80
BUOY 51004       0550      80   60/ 17/ 21 1015.0R   8/ 8   3/110
WAIMEA BAY#      0602      78                N/A     4/ 6
MOKAPU POINT#    0604      81                N/A     7/ 8   2/120
LANAI#           NOT AVBL
BARBERS PT 2#    NOT AVBL
PAUWELA#         0609      80                N/A     6/ 8   2/ 70
HILO#            0627      80                N/A     6/ 8   2/100
KANEOHE BAY#     NOT AVBL
KANEOHE BAY 2#   NOT AVBL
HANALEI#         0622      81                N/A     6/ 7   2/ 20
KAHULUI HARBOR   0612   79 81   40/ 14/ 19 1017.1
HONOLULU HARBOR  0612   81 81   40/  5/ 10 1017.5
PEARL HARBOR#    0600      81                N/A     3/ 7   2/160
KILO NALU        NOT AVBL
HILO HARBOR      0612   75 80  180/  1/  3 1017.7
MOKUOLOE         0536   81 83   80/ 11/ 15 1017.2R
NAWILIWILI       0612   80 83   60/ 14/ 19 1017.6
WHOTS BUOY       NOT AVBL
BUOY 51028       NOT AVBL
$$

......................KEY........................................
  SKY/WX - SKY CONDITIONS/PRESENT WEATHER
  TMP    - TEMPERATURE IN FAHRENHEIT
  DWPT   - DEWPOINT IN FAHRENHEIT
  RH     - RELATIVE HUMIDITY IN PERCENT
  WIND   - DIRECTION AND SPEED /MPH FOR ISLANDS...KTS FOR BUOYS/
  PRES   - MEAN SEA LEVEL PRESSURE IN INCHES OF HG
  VSB    - VISIBILITY IN MILES
  HX     - HEAT INDEX
  WCI    - WIND CHILL INDEX
  VRB    - VARIABLE WIND DIRECTION
  N/A    - NOT AVAILABLE




USA.gov is the U.S. government's official web portal to all federal, state and local government web resources and services.